User: anonymous   Login
Location: Aressy
(43.2833°N, 0.3167°W)
Time: 15:29:42
(UTC+00:00)
Language:

Okean O Rocket - Orbit

View from above orbital plane
View from above orbital plane
View from above satellite
View from above satellite

Ground track
Ground track

The orbit data is extracted from the following two-line orbital elements,

1 25861U 99039B   21107.92500733  .00000038  00000-0  12666-4 0  9998
2 25861  98.2079 122.1123 0014309 259.2534 162.9648 14.78632820172612
Epoch (UTC): 17 April 2021 22:12:00
Eccentricity: 0.0014309
inclination: 98.2079°
perigee height: 623 km
apogee height: 643 km
right ascension of ascending node: 122.1123°
argument of perigee: 259.2534°
revolutions per day: 14.78632820
mean anomaly at epoch: 162.9648°
orbit number at epoch: 17261

The dashed part of the orbit path shows where the satellite is in the earth's shadow,  

DLR